Location: Falconara Alta
(43.6167°N, 13.4000°E)
Time: 03:19:45
(UTC+00:00)

STARLINK-1205 - Pass Details

Date: 09 April 2020
Orbit: 548 x 551 km, 53.0° (Epoch: 02 June)

Event Time Altitude Azimuth Distance (km) Brightness Sun altitude
Rises 18:27:52 0° 305° (NW) 2,738 8.9 -8.6°
Reaches altitude 10° 18:30:09 10° 309° (NW) 1,840 7.6 -9.0°
Maximum altitude 18:34:17 61° 31° (NNE) 635 3.9 -9.7°
Enters shadow 18:37:43 14° 110° (ESE) 1,565 5.2 -10.3°
